Location: ActonStarParty
(42.4766°N, 71.4538°W)
Time: 18:57:23
(UTC-04:00)

ISS - All Passes

Search period start: 29 May 2016 00:00
Search period end: 08 June 2016 00:00
Orbit: 402 x 404 km, 51.6° (Epoch: 29 May)

Date Brightness Start Highest point End Pass type
(mag) Time Alt. Az. Time Alt. Az. Time Alt. Az.
29 May - 00:36:46 10° NW 00:38:56 16° N 00:41:06 10° NE visible
29 May - 02:13:12 10° NW 02:16:08 30° NNE 02:19:04 10° E visible
29 May - 03:49:33 10° WNW 03:52:40 44° SW 03:55:47 10° SSE visible
29 May - 20:29:15 10° SSW 20:32:16 36° SE 20:35:19 10° ENE daylight
29 May - 22:05:44 10° W 22:08:44 33° NNW 22:11:45 10° NE visible
29 May - 23:43:42 10° NW 23:45:54 16° N 23:48:06 10° NE visible
30 May - 01:20:32 10° NW 01:23:12 22° NNE 01:25:50 10° ENE visible
30 May - 02:56:42 10° WNW 02:59:58 86° SW 03:03:13 10° SE visible
30 May - 04:35:26 10° WSW 04:35:54 10° SW 04:36:22 10° SW visible
30 May - 19:37:14 10° S 19:39:40 20° SE 19:42:07 10° E daylight
30 May - 21:12:41 10° WSW 21:15:52 53° NNW 21:19:05 10° NE visible
30 May - 22:50:29 10° WNW 22:52:52 18° N 22:55:14 10° NE visible
31 May - 00:27:49 10° NW 00:30:11 18° N 00:32:34 10° ENE visible
31 May - 02:03:58 10° NW 02:07:11 53° NNE 02:10:22 10° ESE visible
31 May - 03:40:57 10° W 03:43:23 19° SW 03:45:48 10° S night (unlit)
31 May - 18:46:37 10° SE 18:47:09 10° SE 18:47:40 10° ESE daylight
31 May - 20:19:49 10° SW 20:23:05 86° SE 20:26:21 10° ENE daylight
31 May - 21:57:13 10° WNW 21:59:52 22° NNW 22:02:31 10° NE visible
31 May - 23:34:57 10° NW 23:37:09 16° N 23:39:21 10° NE visible
01 Jun - 01:11:17 10° NW 01:14:18 33° NNE 01:17:19 10° E visible
01 Jun - 02:47:44 10° WNW 02:50:46 36° SW 02:53:47 10° SSE visible
01 Jun - 19:27:15 10° SSW 19:30:22 44° SE 19:33:30 10° ENE daylight
01 Jun - 21:03:58 10° W 21:06:54 30° NNW 21:09:51 10° NE visible
01 Jun - 22:41:55 10° NW 22:44:06 16° N 22:46:16 10° NE visible
02 Jun - 00:18:38 10° NW 00:21:22 24° NNE 00:24:06 10° ENE visible
02 Jun - 01:54:49 10° WNW 01:58:05 72° SW 02:01:19 10° SE visible
02 Jun - 18:35:03 10° S 18:37:44 23° SE 18:40:24 10° E daylight
02 Jun - 20:10:51 10° WSW 20:14:01 45° NNW 20:17:11 10° NE daylight
02 Jun - 21:48:44 10° NW 21:51:03 18° N 21:53:22 10° NE visible
02 Jun - 23:25:55 10° NW 23:28:22 19° NNE 23:30:49 10° ENE visible
03 Jun - 01:02:03 10° NW 01:05:18 62° NNE 01:08:31 10° ESE visible
03 Jun - 02:39:18 10° W 02:41:25 16° SW 02:43:33 10° S night (unlit)
03 Jun - 17:43:40 10° SSE 17:45:10 13° SE 17:46:40 10° ESE daylight
03 Jun - 19:17:55 10° WSW 19:21:11 79° NNW 19:24:28 10° NE daylight
03 Jun - 20:55:27 10° WNW 20:58:02 21° NNW 21:00:35 10° NE visible
03 Jun - 22:33:06 10° NW 22:35:20 17° N 22:37:34 10° NE visible
04 Jun - 00:09:22 10° NW 00:12:27 37° NNE 00:15:31 10° E visible
04 Jun - 01:45:55 10° WNW 01:48:50 30° SW 01:51:43 10° SSE visible
04 Jun - 18:25:14 10° SW 18:28:26 54° SE 18:31:38 10° ENE daylight
04 Jun - 20:02:11 10° W 20:05:02 27° NNW 20:07:54 10° NE daylight
04 Jun - 21:40:06 10° NW 21:42:16 16° N 21:44:26 10° NE visible
04 Jun - 23:16:41 10° NW 23:19:31 26° NNE 23:22:19 10° E visible
05 Jun - 00:52:56 10° WNW 00:56:09 58° SW 00:59:21 10° SE visible
05 Jun - 17:32:54 10° SSW 17:35:45 28° SE 17:38:37 10° ENE daylight
05 Jun - 19:09:01 10° W 19:12:07 39° NNW 19:15:13 10° NE daylight
05 Jun - 20:46:57 10° NW 20:49:12 17° N 20:51:28 10° NE daylight
05 Jun - 22:23:58 10° NW 22:26:31 20° NNE 22:29:03 10° ENE visible
06 Jun - 00:00:07 10° NW 00:03:23 74° NNE 00:06:38 10° ESE visible
06 Jun - 01:37:44 10° W 01:39:25 13° SW 01:41:07 10° SSW night (unlit)
06 Jun - 16:41:10 10° S 16:43:09 15° SE 16:45:09 10° E daylight
06 Jun - 18:16:00 10° WSW 18:19:15 66° NNW 18:22:30 10° NE daylight
06 Jun - 19:53:40 10° WNW 19:56:09 20° NNW 19:58:38 10° NE daylight
06 Jun - 21:31:11 10° NW 21:33:28 17° N 21:35:46 10° NE visible
06 Jun - 23:07:24 10° NW 23:10:32 43° NNE 23:13:39 10° E visible
07 Jun - 00:44:06 10° WNW 00:46:50 25° SW 00:49:34 10° SSE visible
07 Jun - 17:23:13 10° SW 17:26:28 66° SE 17:29:43 10° ENE daylight
07 Jun - 19:00:22 10° WNW 19:03:08 25° NNW 19:05:55 10° NE daylight
07 Jun - 20:38:14 10° NW 20:40:24 16° N 20:42:34 10° NE daylight
07 Jun - 22:14:42 10° NW 22:17:36 29° NNE 22:20:30 10° E visible
07 Jun - 23:51:01 10° WNW 23:54:10 48° SW 23:57:19 10° SE visible
